QZS-3 (MICHIBIKI-3) (42917 NORAD) Tracking and Keplerian Element Data

This shows tracking and keplerian element data for the satellite.

Feedback or suggestion? Click here.




ElementValue
Catalog42917
NameQZS-3 (MICHIBIKI-3)
Epoch Orbit1862
Epoch Day269.85952056
Epoch Year2022
RAAN210.0056
Inclination0.0585
Eccentricity0.0001341
Argument of Perigee339.6872
Mean Anonmoly252.4502
Mean Motion1.0027304
Decay Rate-3.45E-06
L11 42917U 17048A 22269.85952056 -.00000345 00000+0 00000+0 0 9995
L22 42917 0.0585 210.0056 0001341 339.6872 252.4502 1.00273040 18628

Live tracking and technical data element details for QZS-3 (MICHIBIKI-3) (NORAD 42917). QZS-3 (MICHIBIKI-3) can be tracked NOW for your location showing map with azimuth and elevation plus other details from your city location.

Track the satellite on the map from your city or location and see movement details for azimuth, elevation, latitude, longitude, range, height, and movement on the map or in text.







IsCatalogInMostPopularTable: catalog: 42917, numindb: 735
Update: records affected: 1



GetName: 42917 QZS-3 (MICHIBIKI-3)

Hit Count: updated at: Wed, 28 Sep 2022 22:42:38 GMT